{"data":{"norad_id":55615,"intl_designator":"2023-020AY","name":"STARLINK-5712","alt_names":[],"object_type":"PAYLOAD","status":"ACTIVE","operator":null,"country":"US","launch_date":"2023-02-12","launch_site_code":"AFETR","launch_vehicle":null,"mission":null,"orbit_class":"UNKNOWN","rcs_meters":null,"size_class":null,"mass_kg":null,"dimensions":null,"purposes":["comms"],"wikipedia_slug":null,"has_3d_model":false,"image_url":null,"decayed_at":null,"tle_current":{"epoch":"2026-05-25T01:33:29.051712Z","epoch_age_seconds":63407,"freshness":"FRESH","line1":"1 55615U 23020AY  26145.06491958  .00001779  00000+0  74140-4 0  9992","line2":"2 55615  43.0024 282.5823 0001307 274.2183  85.8520 15.27591365180725","mean_motion":15.27591365,"eccentricity":0.0001307,"inclination_deg":43.0024,"raan_deg":282.5823,"arg_perigee_deg":274.2183,"mean_anomaly_deg":85.852,"bstar":7.414e-5,"rev_number":18072,"period_min":94.266047386305,"perigee_km":482.11831277716,"apogee_km":483.91181792704,"semimajor_km":6861.1520653521,"source":"CELESTRAK","updated_at":"2026-05-25T13:38:17.844453Z"}}}